• In Deutschland
  • Länderverzeichnis
  • Für 7 Tage
  • Wassertemperatur
  • Satellitenkarten
  • Wetterkarte
  • Widgets
  • user-avatar
    Anmelden

    Stündliche Wetter Saurimo

    Heute, 23 Mai, Mittwoch

    Zeit Temperatur Niederschläge Wind Luftdruck Luftfeuchtigkeit
    00:00 +19°C° 0 mm 2 m/S 671 mmHg 45%
    01:00 +18°C° 0 mm 2 m/S 671 mmHg 45%
    02:00 +18°C° 0 mm 2 m/S 671 mmHg 45%
    03:00 +18°C° 0 mm 2 m/S 671 mmHg 45%
    04:00 +18°C° 0 mm 2 m/S 671 mmHg 45%
    05:00 +18°C° 0 mm 2 m/S 671 mmHg 45%
    06:00 +19°C° 0 mm 3 m/S 672 mmHg 45%
    07:00 +19°C° 0 mm 3 m/S 672 mmHg 45%
    08:00 +22°C° 0 mm 3 m/S 673 mmHg 41%
    09:00 +26°C° 0 mm 4 m/S 673 mmHg 37%
    10:00 +29°C° 0 mm 4 m/S 674 mmHg 33%
    11:00 +30°C° 0 mm 3 m/S 673 mmHg 31%
    12:00 +31°C° 0 mm 3 m/S 673 mmHg 30%
    13:00 +32°C° 0 mm 2 m/S 673 mmHg 29%
    14:00 +32°C° 0 mm 2 m/S 672 mmHg 30%
    15:00 +31°C° 0 mm 2 m/S 672 mmHg 30%
    16:00 +31°C° 0 mm 2 m/S 671 mmHg 31%
    17:00 +29°C° 0 mm 1 m/S 671 mmHg 37%
    18:00 +26°C° 0 mm 1 m/S 671 mmHg 42%
    19:00 +24°C° 0 mm 1 m/S 671 mmHg 47%
    20:00 +23°C° 0 mm 1 m/S 671 mmHg 49%
    21:00 +23°C° 0 mm 1 m/S 672 mmHg 50%
    22:00 +22°C° 0 mm 1 m/S 672 mmHg 51%
    23:00 +22°C° 0 mm 1 m/S 671 mmHg 52%

    Morgen, 24 Mai, Donnerstag

    Zeit Temperatur Niederschläge Wind Luftdruck Luftfeuchtigkeit
    00:00 +21°C° 0 mm 1 m/S 671 mmHg 53%
    01:00 +21°C° 0 mm 1 m/S 671 mmHg 55%
    02:00 +21°C° 0 mm 1 m/S 671 mmHg 56%
    03:00 +19°C° 0 mm 2 m/S 670 mmHg 56%
    04:00 +19°C° 0 mm 2 m/S 670 mmHg 57%
    05:00 +19°C° 0 mm 2 m/S 671 mmHg 56%
    06:00 +20°C° 0 mm 2 m/S 671 mmHg 55%
    07:00 +20°C° 0 mm 3 m/S 672 mmHg 54%
    08:00 +24°C° 0 mm 3 m/S 672 mmHg 48%
    09:00 +27°C° 0 mm 3 m/S 673 mmHg 42%
    10:00 +30°C° 0 mm 3 m/S 674 mmHg 37%
    11:00 +31°C° 0 mm 3 m/S 673 mmHg 34%
    12:00 +32°C° 0 mm 2 m/S 672 mmHg 31%
    13:00 +34°C° 0 mm 2 m/S 672 mmHg 29%
    14:00 +32°C° 0 mm 1 m/S 671 mmHg 32%
    15:00 +31°C° 0 mm 1 m/S 671 mmHg 35%
    16:00 +30°C° 0 mm 1 m/S 670 mmHg 38%
    17:00 +28°C° 0 mm 1 m/S 670 mmHg 41%
    18:00 +27°C° 0 mm 1 m/S 670 mmHg 43%
    19:00 +26°C° 0 mm 1 m/S 671 mmHg 46%
    20:00 +25°C° 0 mm 1 m/S 671 mmHg 48%
    21:00 +24°C° 0 mm 1 m/S 671 mmHg 50%
    22:00 +23°C° 0 mm 1 m/S 671 mmHg 52%
    23:00 +23°C° 0 mm 1 m/S 671 mmHg 54%

    übermorgen, 25 Mai, Freitag

    Zeit Temperatur Niederschläge Wind Luftdruck Luftfeuchtigkeit
    00:00 +22°C° 0 mm 1 m/S 670 mmHg 55%
    01:00 +21°C° 0 mm 1 m/S 670 mmHg 57%
    02:00 +21°C° 0 mm 1 m/S 670 mmHg 58%
    03:00 +19°C° 0 mm 2 m/S 670 mmHg 59%
    04:00 +19°C° 0 mm 2 m/S 669 mmHg 61%
    05:00 +20°C° 0 mm 2 m/S 670 mmHg 59%
    06:00 +20°C° 0 mm 2 m/S 670 mmHg 57%
    07:00 +21°C° 0 mm 3 m/S 671 mmHg 55%
    08:00 +25°C° 0 mm 3 m/S 672 mmHg 50%
    09:00 +27°C° 0 mm 3 m/S 672 mmHg 44%
    10:00 +30°C° 0 mm 4 m/S 673 mmHg 38%
    11:00 +30°C° 0 mm 3 m/S 672 mmHg 36%
    12:00 +31°C° 0 mm 3 m/S 672 mmHg 34%
    13:00 +31°C° 0 mm 2 m/S 671 mmHg 32%
    14:00 +31°C° 0 mm 2 m/S 671 mmHg 34%
    15:00 +30°C° 0 mm 2 m/S 670 mmHg 36%
    16:00 +29°C° 0 mm 1 m/S 670 mmHg 38%
    17:00 +28°C° 0 mm 1 m/S 670 mmHg 40%
    18:00 +27°C° 0 mm 1 m/S 671 mmHg 43%
    19:00 +25°C° 0 mm 1 m/S 671 mmHg 46%
    20:00 +25°C° 0 mm 2 m/S 671 mmHg 46%
    21:00 +25°C° 0 mm 2 m/S 671 mmHg 47%
    22:00 +24°C° 0 mm 2 m/S 672 mmHg 48%
    23:00 +24°C° 0 mm 2 m/S 671 mmHg 49%

    26 Mai, Samstag

    Zeit Temperatur Niederschläge Wind Luftdruck Luftfeuchtigkeit
    00:00 +23°C° 0 mm 2 m/S 671 mmHg 50%
    01:00 +23°C° 0 mm 2 m/S 670 mmHg 50%
    02:00 +21°C° 0 mm 2 m/S 670 mmHg 50%
    03:00 +21°C° 0 mm 2 m/S 670 mmHg 50%
    04:00 +21°C° 0 mm 2 m/S 670 mmHg 50%
    05:00 +21°C° 0 mm 2 m/S 671 mmHg 50%
    06:00 +21°C° 0 mm 2 m/S 671 mmHg 50%
    07:00 +21°C° 0 mm 2 m/S 672 mmHg 50%
    08:00 +25°C° 0 mm 2 m/S 672 mmHg 43%
    09:00 +28°C° 0 mm 2 m/S 673 mmHg 36%
    10:00 +31°C° 0 mm 2 m/S 674 mmHg 29%
    11:00 +31°C° 0 mm 2 m/S 673 mmHg 29%
    12:00 +31°C° 0 mm 2 m/S 672 mmHg 28%
    13:00 +31°C° 0 mm 2 m/S 671 mmHg 27%
    14:00 +30°C° 0 mm 2 m/S 671 mmHg 30%
    15:00 +29°C° 0 mm 2 m/S 671 mmHg 32%
    16:00 +29°C° 0 mm 2 m/S 670 mmHg 35%
    17:00 +27°C° 0 mm 2 m/S 671 mmHg 39%
    18:00 +26°C° 0 mm 2 m/S 671 mmHg 44%
    19:00 +24°C° 0 mm 2 m/S 671 mmHg 48%
    20:00 +23°C° 0 mm 2 m/S 672 mmHg 51%
    21:00 +23°C° 0 mm 2 m/S 672 mmHg 54%
    22:00 +21°C° 0 mm 2 m/S 672 mmHg 57%
    23:00 +20°C° 0 mm 2 m/S 671 mmHg 58%

    27 Mai, Sonntag

    Zeit Temperatur Niederschläge Wind Luftdruck Luftfeuchtigkeit
    00:00 +20°C° 0 mm 2 m/S 671 mmHg 58%
    01:00 +19°C° 0 mm 2 m/S 671 mmHg 59%
    02:00 +18°C° 0 mm 2 m/S 671 mmHg 60%
    03:00 +18°C° 0 mm 2 m/S 670 mmHg 60%
    04:00 +17°C° 0 mm 2 m/S 670 mmHg 61%
    05:00 +18°C° 0 mm 2 m/S 671 mmHg 60%
    06:00 +19°C° 0 mm 2 m/S 672 mmHg 60%
    07:00 +19°C° 0 mm 2 m/S 672 mmHg 59%
    08:00 +24°C° 0 mm 2 m/S 673 mmHg 51%
    09:00 +27°C° 0 mm 2 m/S 674 mmHg 42%
    10:00 +30°C° 0 mm 3 m/S 674 mmHg 33%
    11:00 +31°C° 0 mm 2 m/S 674 mmHg 31%
    12:00 +31°C° 0 mm 2 m/S 673 mmHg 29%
    13:00 +32°C° 0 mm 2 m/S 672 mmHg 27%
    14:00 +31°C° 0 mm 2 m/S 672 mmHg 30%
    15:00 +30°C° 0 mm 2 m/S 672 mmHg 33%
    16:00 +29°C° 0 mm 2 m/S 671 mmHg 36%
    17:00 +28°C° 0 mm 2 m/S 672 mmHg 40%
    18:00 +26°C° 0 mm 2 m/S 672 mmHg 45%
    19:00 +25°C° 0 mm 2 m/S 672 mmHg 50%
    20:00 +24°C° 0 mm 1 m/S 672 mmHg 53%
    21:00 +23°C° 0 mm 1 m/S 672 mmHg 56%
    22:00 +22°C° 0 mm 1 m/S 672 mmHg 59%
    23:00 +22°C° 0 mm 1 m/S 672 mmHg 61%

    28 Mai, Montag

    Zeit Temperatur Niederschläge Wind Luftdruck Luftfeuchtigkeit
    00:00 +21°C° 0 mm 1 m/S 671 mmHg 62%
    01:00 +20°C° 0 mm 1 m/S 671 mmHg 64%
    02:00 +20°C° 0 mm 1 m/S 671 mmHg 65%
    03:00 +20°C° 0 mm 1 m/S 671 mmHg 67%
    04:00 +18°C° 0 mm 2 m/S 671 mmHg 68%
    05:00 +19°C° 0 mm 2 m/S 672 mmHg 65%
    06:00 +20°C° 0 mm 2 m/S 672 mmHg 63%
    07:00 +20°C° 0 mm 3 m/S 673 mmHg 60%
    08:00 +24°C° 0 mm 3 m/S 673 mmHg 53%
    09:00 +27°C° 0 mm 3 m/S 674 mmHg 45%
    10:00 +30°C° 0 mm 3 m/S 674 mmHg 38%
    11:00 +30°C° 0 mm 3 m/S 673 mmHg 36%
    12:00 +31°C° 0 mm 3 m/S 673 mmHg 35%
    13:00 +31°C° 0 mm 2 m/S 672 mmHg 34%
    14:00 +31°C° 0 mm 2 m/S 672 mmHg 36%
    15:00 +30°C° 0 mm 2 m/S 671 mmHg 38%
    16:00 +30°C° 0 mm 1 m/S 671 mmHg 40%
    17:00 +28°C° 0 mm 1 m/S 671 mmHg 44%
    18:00 +26°C° 0 mm 1 m/S 671 mmHg 48%
    19:00 +25°C° 0 mm 1 m/S 671 mmHg 52%
    20:00 +24°C° 0 mm 1 m/S 671 mmHg 53%
    21:00 +24°C° 0 mm 1 m/S 671 mmHg 55%
    22:00 +23°C° 0 mm 1 m/S 671 mmHg 56%
    23:00 +22°C° 0 mm 1 m/S 671 mmHg 58%
    Mehr zeigen